Weather History for KETB - September, 2013

Change the Weather History Date:

Tuesday, September 24, 2013

  Actual Average Record
Temperature  
Mean Temperature 50 °F -  
Max Temperature 64 °F 67 °F 88 °F (1935)
Min Temperature 37 °F 43 °F 28 °F (1989)
Degree Days  
Heating Degree Days 14    
Moisture  
Dew Point 44 °F    
Average Humidity 80    
Maximum Humidity 100    
Minimum Humidity 52    
Precipitation  
Precipitation 0.00 in - - ()
Sea Level Pressure  
Sea Level Pressure 30.04 in    
Wind  
Wind Speed 2 mph (ESE)    
Max Wind Speed 12 mph    
Max Gust Speed 16 mph    
Visibility 8 miles    
Events Fog    
Averages and records for this station are not official NWS values.
T = Trace of Precipitation, MM = Missing Value Source: NWS Daily Summary

Daily Weather History Graph

Daily Weather History Graph

Search for Another Location

Airport or City:

Trip Planner

Search our weather history database for the weather conditions in past years. The results will help you decide how hot, cold, wet, or windy it might be!

Date:

Astronomy

Sep. 24, 2013 Rise Set
Actual Time 6:42 AM CDT 6:45 PM CDT
Civil Twilight 6:13 AM CDT 7:14 PM CDT
Nautical Twilight 5:40 AM CDT 7:47 PM CDT
Astronomical Twilight 5:06 AM CDT 8:21 PM CDT
Moon 9:54 PM CDT (9/24) 12:05 PM CDT (9/24)
Length of Visible Light 13h 00m
Length of Day
12h 03m
Waning Gibbous, 73% of the Moon is Illuminated
Sep 24
Waning Gibbous
Sep 26
Last Quarter
Oct 4
New
Oct 11
First Quarter
Oct 18
Full

Hourly Weather History & Observations

Time (CDT) Temp. Dew Point Humidity Pressure Visibility Wind Dir Wind Speed Gust Speed Precip Events Conditions
12:15 AM 41.0 °F 41.0 °F 100% 30.07 in 0.8 mi Calm Calm - N/A   Scattered Clouds
12:35 AM 41.0 °F 41.0 °F 100% 30.06 in 4.0 mi Calm Calm - N/A   Clear
12:55 AM 41.0 °F 39.2 °F 93% 30.06 in 10.0 mi Calm Calm - N/A   Clear
1:15 AM 41.0 °F 39.2 °F 93% 30.06 in 10.0 mi Calm Calm - N/A   Clear
1:35 AM 41.0 °F 39.2 °F 93% 30.07 in 1.2 mi Calm Calm - N/A   Mist
1:55 AM 41.0 °F 41.0 °F 100% 30.07 in 7.0 mi Calm Calm - N/A   Clear
2:35 AM 41.0 °F 37.4 °F 87% 30.06 in 7.0 mi Calm Calm - N/A   Clear
2:55 AM 41.0 °F 39.2 °F 93% 30.07 in 7.0 mi Calm Calm - N/A   Clear
3:15 AM 41.0 °F 37.4 °F 87% 30.06 in 7.0 mi Calm Calm - N/A   Clear
3:35 AM 41.0 °F 39.2 °F 93% 30.07 in 7.0 mi Calm Calm - N/A   Clear
3:55 AM 41.0 °F 37.4 °F 87% 30.07 in 10.0 mi Calm Calm - N/A   Clear
4:35 AM 41.0 °F 37.4 °F 87% 30.07 in 10.0 mi Calm Calm - N/A   Clear
4:55 AM 39.2 °F 37.4 °F 93% 30.07 in 10.0 mi Calm Calm - N/A   Clear
5:15 AM 39.2 °F 37.4 °F 93% 30.08 in 10.0 mi Calm Calm - N/A   Clear
5:35 AM 41.0 °F 37.4 °F 87% 30.08 in 10.0 mi Calm Calm - N/A   Clear
5:55 AM 39.2 °F 35.6 °F 87% 30.09 in 10.0 mi Calm Calm - N/A   Clear
6:15 AM 39.2 °F 35.6 °F 87% 30.08 in 10.0 mi Calm Calm - N/A   Scattered Clouds
6:35 AM 39.2 °F 37.4 °F 93% 30.09 in 1.5 mi Calm Calm - N/A   Overcast
6:55 AM 39.2 °F 37.4 °F 93% 30.09 in 0.2 mi Calm Calm - N/A Fog Fog
7:15 AM 37.4 °F 37.4 °F 100% 30.09 in 0.2 mi Calm Calm - N/A Fog Fog
7:35 AM 41.0 °F 39.2 °F 93% 30.08 in 0.5 mi Calm Calm - N/A Fog Fog
7:55 AM 42.8 °F 41.0 °F 93% 30.08 in 0.2 mi Calm Calm - N/A Fog Fog
8:15 AM 44.6 °F 44.6 °F 100% 30.08 in 3.0 mi Calm Calm - N/A   Mist
8:35 AM 48.2 °F 46.4 °F 93% 30.08 in 10.0 mi Calm Calm - N/A   Unknown
8:55 AM 53.6 °F 51.8 °F 94% 30.08 in 10.0 mi Calm Calm - N/A   Clear
9:15 AM 57.2 °F 51.8 °F 82% 30.08 in 10.0 mi Calm Calm - N/A   Clear
9:35 AM 60.8 °F 51.8 °F 72% 30.08 in 10.0 mi ESE 6.9 mph - N/A   Scattered Clouds
9:55 AM 62.6 °F 53.6 °F 72% 30.07 in 10.0 mi East 8.1 mph - N/A   Scattered Clouds
10:15 AM 62.6 °F 51.8 °F 68% 30.07 in 10.0 mi SE 8.1 mph - N/A   Mostly Cloudy
10:35 AM 62.6 °F 51.8 °F 68% 30.07 in 10.0 mi ESE 10.4 mph - N/A   Mostly Cloudy
10:55 AM 62.6 °F 51.8 °F 68% 30.06 in 10.0 mi ESE 9.2 mph - N/A   Mostly Cloudy
11:15 AM 64.4 °F 51.8 °F 64% 30.06 in 10.0 mi ESE 10.4 mph - N/A   Mostly Cloudy
11:35 AM 64.4 °F 50.0 °F 59% 30.06 in 10.0 mi SE 8.1 mph - N/A   Scattered Clouds
11:55 AM 64.4 °F 51.8 °F 64% 30.05 in 10.0 mi East 9.2 mph - N/A   Mostly Cloudy
12:15 PM 64.4 °F 48.2 °F 56% 30.04 in 10.0 mi ESE 9.2 mph - N/A   Mostly Cloudy
12:55 PM 64.4 °F 48.2 °F 56% 30.03 in 10.0 mi SE 9.2 mph - N/A   Mostly Cloudy
1:15 PM 64.4 °F 48.2 °F 56% 30.03 in 10.0 mi ESE 9.2 mph - N/A   Scattered Clouds
1:35 PM 64.4 °F 48.2 °F 56% 30.02 in 10.0 mi ESE 11.5 mph - N/A   Mostly Cloudy
1:55 PM 64.4 °F 50.0 °F 59% 30.02 in 10.0 mi East 11.5 mph 16.1 mph N/A   Mostly Cloudy
2:15 PM 62.6 °F 48.2 °F 59% 30.03 in 10.0 mi East 9.2 mph - N/A   Scattered Clouds
2:35 PM 64.4 °F 48.2 °F 56% 30.02 in 10.0 mi ESE 10.4 mph - N/A   Clear
2:55 PM 62.6 °F 48.2 °F 59% 30.02 in 10.0 mi ESE 8.1 mph - N/A   Scattered Clouds
3:35 PM 64.4 °F 46.4 °F 52% 30.01 in 10.0 mi ESE 10.4 mph - N/A   Scattered Clouds
3:55 PM 62.6 °F 46.4 °F 55% 30.01 in 10.0 mi ESE 6.9 mph - N/A   Scattered Clouds
4:15 PM 62.6 °F 48.2 °F 59% 30.01 in 10.0 mi ESE 8.1 mph - N/A   Scattered Clouds
4:35 PM 62.6 °F 46.4 °F 55% 30.00 in 10.0 mi East 6.9 mph - N/A   Scattered Clouds
4:55 PM 62.6 °F 48.2 °F 59% 30.01 in 10.0 mi ESE 6.9 mph - N/A   Scattered Clouds
5:15 PM 60.8 °F 48.2 °F 63% 30.01 in 10.0 mi ENE 10.4 mph - N/A   Mostly Cloudy
5:35 PM 60.8 °F 46.4 °F 59% 30.01 in 10.0 mi East 9.2 mph - N/A   Mostly Cloudy
5:55 PM 59.0 °F 46.4 °F 63% 30.01 in 10.0 mi East 6.9 mph - N/A   Mostly Cloudy
6:15 PM 55.4 °F 46.4 °F 72% 30.00 in 10.0 mi East 4.6 mph - N/A   Scattered Clouds
6:35 PM 55.4 °F 46.4 °F 72% 30.00 in 10.0 mi East 4.6 mph - N/A   Scattered Clouds
7:15 PM 53.6 °F 46.4 °F 77% 30.00 in 10.0 mi ENE 3.5 mph - N/A   Clear
7:35 PM 51.8 °F 48.2 °F 88% 30.00 in 10.0 mi Calm Calm - N/A   Clear
7:55 PM 51.8 °F 46.4 °F 82% 30.00 in 10.0 mi Calm Calm - N/A   Clear
8:15 PM 50.0 °F 46.4 °F 87% 30.00 in 10.0 mi Calm Calm - N/A   Clear
8:35 PM 48.2 °F 44.6 °F 87% 30.00 in 7.0 mi Calm Calm - N/A   Clear
8:55 PM 46.4 °F 44.6 °F 93% 30.00 in 7.0 mi Calm Calm - N/A   Clear
9:15 PM 46.4 °F 44.6 °F 93% 30.00 in 5.0 mi Calm Calm - N/A   Clear
9:35 PM 44.6 °F 42.8 °F 93% 30.00 in 0.5 mi Calm Calm - N/A Fog Fog
9:55 PM 46.4 °F 44.6 °F 93% 30.01 in 7.0 mi Calm Calm - N/A   Clear
10:15 PM 44.6 °F 42.8 °F 93% 30.00 in 4.0 mi Calm Calm - N/A   Clear
10:35 PM 44.6 °F 42.8 °F 93% 30.00 in 2.5 mi Calm Calm - N/A   Clear
10:55 PM 44.6 °F 42.8 °F 93% 30.00 in 0.8 mi Calm Calm - N/A   Mostly Cloudy
11:15 PM 44.6 °F 42.8 °F 93% 30.00 in 4.0 mi Calm Calm - N/A   Scattered Clouds
11:35 PM 44.6 °F 42.8 °F 93% 30.00 in 3.0 mi Calm Calm - N/A   Clear
11:55 PM 42.8 °F 42.8 °F 100% 29.99 in 1.2 mi Calm Calm - N/A   Mist